QPF
0.02 0.02 0.02 0.03 0.02 0.03 0.02 0.02 0.04 0.03 0.03 0.04 0.03 0.03 0.03 0.03 0.03 0.04 0.04 0.03 0.03 0.03 0.03 0.03 0.04 0.04 0.03 0.03 0.02 0.02 0.02 0.03 0.04 0.05 0.06 0.04 0.04 0.06 0.07 0.08 0.09 0.03 0.03
0.01 0.01 0.01 0.02 0.02 0.02 0.02 0.02 0.03 0.04 0.03 0.03 0.03 0.03 0.03 0.03 0.04 0.04 0.04 0.05 0.04 0.04 0.04 0.05 0.04 0.03 0.03 0.04 0.04 0.02 0.02 0.03 0.03 0.05 0.05 0.04 0.06 0.09 0.10 0.10 0.12 0.03 0.03
0.00 0.01 0.01 0.02 0.02 0.02 0.02 0.02 0.04 0.05 0.03 0.02 0.02 0.03 0.03 0.04 0.04 0.04 0.04 0.05 0.05 0.05 0.04 0.04 0.04 0.04 0.03 0.04 0.04 0.04 0.03 0.04 0.05 0.08 0.12 0.06 0.02 0.05 0.07 0.08 0.08 0.04 0.03
0.00 0.01 0.01 0.01 0.02 0.02 0.02 0.02 0.03 0.04 0.04 0.03 0.04 0.03 0.04 0.04 0.04 0.05 0.06 0.07 0.06 0.04 0.03 0.03 0.04 0.03 0.03 0.03 0.02 0.02 0.02 0.03 0.06 0.14 0.15 0.07 0.03 0.02 0.04 0.04 0.04 0.04 0.04
0.00 0.01 0.00 0.00 0.01 0.01 0.01 0.02 0.02 0.03 0.03 0.03 0.02 0.03 0.04 0.05 0.04 0.05 0.06 0.06 0.04 0.03 0.03 0.03 0.03 0.02 0.02 0.02 0.02 0.02 0.02 0.05 0.09 0.13 0.10 0.07 0.07 0.03 0.03 0.03 0.03 0.03 0.03
0.00 0.00 0.00 0.00 0.00 0.00 0.01 0.01 0.02 0.03 0.02 0.02 0.02 0.02 0.03 0.03 0.03 0.04 0.05 0.05 0.03 0.03 0.03 0.03 0.02 0.01 0.02 0.02 0.03 0.02 0.02 0.05 0.10 0.07 0.06 0.10 0.06 0.03 0.04 0.05 0.05 0.05 0.04
0.00 0.00 0.00 0.00 0.00 0.01 0.01 0.01 0.01 0.02 0.02 0.02 0.02 0.02 0.03 0.03 0.02 0.03 0.04 0.03 0.03 0.03 0.03 0.03 0.02 0.02 0.02 0.02 0.02 0.02 0.02 0.05 0.05 0.03 0.08 0.12 0.05 0.03 0.04 0.06 0.06 0.04 0.03
0.00 0.00 0.00 0.00 0.01 0.01 0.01 0.01 0.02 0.02 0.02 0.02 0.02 0.02 0.02 0.02 0.02 0.02 0.02 0.02 0.03 0.03 0.02 0.02 0.02 0.01 0.01 0.01 0.01 0.01 0.01 0.04 0.02 0.03 0.06 0.05 0.01 0.01 0.02 0.04 0.05 0.04 0.03
0.00 0.00 0.00 0.00 0.00 0.02 0.02 0.02 0.02 0.03 0.03 0.03 0.02 0.02 0.02 0.02 0.02 0.02 0.02 0.02 0.03 0.03 0.02 0.02 0.03 0.01 0.01 0.00 0.01 0.01 0.01 0.02 0.02 0.01 0.02 0.01 0.00 0.01 0.01 0.02 0.02 0.03 0.02
0.00 0.00 0.00 0.00 0.00 0.01 0.01 0.02 0.03 0.03 0.03 0.03 0.02 0.02 0.02 0.02 0.02 0.03 0.03 0.02 0.03 0.02 0.02 0.02 0.01 0.01 0.01 0.00 0.00 0.01 0.01 0.02 0.02 0.01 0.01 0.01 0.01 0.02 0.02 0.02 0.02 0.02 0.02
0.00 0.00 0.00 0.00 0.01 0.01 0.01 0.02 0.03 0.03 0.02 0.03 0.03 0.03 0.06 0.09 0.05 0.06 0.03 0.02 0.02 0.02 0.01 0.01 0.01 0.01 0.01 0.00 0.01 0.01 0.01 0.02 0.02 0.01 0.01 0.01 0.02 0.03 0.02 0.01 0.03 0.03 0.03
0.00 0.01 0.01 0.00 0.00 0.01 0.01 0.03 0.07 0.07 0.06 0.10 0.09 0.07 0.14 0.13 0.12 0.08 0.04 0.02 0.02 0.01 0.01 0.01 0.01 0.02 0.02 0.03 0.02 0.03 0.02 0.01 0.01 0.01 0.01 0.01 0.02 0.03 0.02 0.01 0.02 0.03 0.03
0.00 0.01 0.01 0.01 0.01 0.01 0.03 0.04 0.07 0.09 0.10 0.11 0.08 0.08 0.10 0.07 0.07 0.07 0.07 0.05 0.04 0.03 0.03 0.01 0.02 0.03 0.03 0.02 0.02 0.02 0.01 0.00 0.01 0.01 0.01 0.01 0.02 0.02 0.01 0.02 0.02 0.01 0.01
0.00 0.00 0.01 0.01 0.01 0.02 0.03 0.04 0.06 0.06 0.05 0.06 0.05 0.03 0.04 0.06 0.07 0.09 0.11 0.10 0.09 0.09 0.09 0.05 0.03 0.02 0.01 0.01 0.01 0.00 0.00 0.00 0.01 0.02 0.02 0.01 0.01 0.02 0.01 0.02 0.02 0.01 0.01
0.00 0.01 0.01 0.01 0.02 0.03 0.03 0.05 0.03 0.03 0.03 0.04 0.03 0.02 0.02 0.04 0.05 0.08 0.08 0.07 0.07 0.07 0.05 0.04 0.01 0.02 0.02 0.01 0.01 0.01 0.01 0.01 0.01 0.03 0.03 0.01 0.00 0.01 0.02 0.02 0.02 0.01 0.01
0.01 0.02 0.02 0.02 0.02 0.03 0.03 0.04 0.04 0.02 0.04 0.06 0.03 0.01 0.01 0.05 0.06 0.07 0.08 0.07 0.05 0.05 0.04 0.03 0.01 0.02 0.02 0.02 0.01 0.00 0.01 0.01 0.01 0.04 0.04 0.04 0.01 0.01 0.01 0.01 0.01 0.01 0.01
0.02 0.02 0.03 0.02 0.03 0.03 0.04 0.04 0.03 0.02 0.02 0.03 0.02 0.01 0.01 0.03 0.05 0.06 0.07 0.07 0.05 0.04 0.04 0.03 0.02 0.02 0.02 0.02 0.02 0.01 0.01 0.01 0.01 0.02 0.02 0.05 0.04 0.01 0.00 0.00 0.00 0.00 0.01
0.01 0.01 0.03 0.02 0.04 0.04 0.04 0.04 0.03 0.02 0.01 0.01 0.01 0.03 0.02 0.02 0.04 0.07 0.08 0.07 0.05 0.03 0.03 0.04 0.04 0.04 0.04 0.03 0.02 0.02 0.03 0.02 0.01 0.01 0.01 0.02 0.05 0.04 0.02 0.00 0.01 0.01 0.01
0.01 0.00 0.01 0.03 0.03 0.04 0.02 0.02 0.03 0.02 0.02 0.02 0.02 0.04 0.04 0.04 0.04 0.05 0.06 0.06 0.05 0.04 0.04 0.04 0.07 0.06 0.07 0.08 0.04 0.03 0.01 0.03 0.02 0.01 0.02 0.01 0.03 0.05 0.03 0.02 0.01 0.01 0.01
0.00 0.01 0.02 0.03 0.03 0.03 0.02 0.03 0.05 0.04 0.04 0.02 0.03 0.03 0.05 0.06 0.05 0.05 0.05 0.06 0.05 0.06 0.07 0.06 0.10 0.09 0.09 0.10 0.06 0.07 0.03 0.02 0.02 0.02 0.02 0.02 0.03 0.03 0.01 0.03 0.02 0.01 0.01
0.01 0.01 0.02 0.04 0.05 0.05 0.05 0.05 0.07 0.08 0.07 0.04 0.02 0.02 0.03 0.05 0.05 0.07 0.06 0.09 0.07 0.07 0.08 0.07 0.11 0.12 0.11 0.10 0.11 0.11 0.05 0.02 0.03 0.03 0.02 0.02 0.02 0.02 0.02 0.02 0.03 0.03 0.02
0.04 0.05 0.03 0.04 0.05 0.04 0.05 0.06 0.06 0.10 0.10 0.10 0.06 0.05 0.03 0.04 0.05 0.06 0.08 0.07 0.08 0.10 0.09 0.09 0.12 0.12 0.11 0.11 0.12 0.17 0.17 0.15 0.09 0.02 0.02 0.02 0.02 0.03 0.03 0.03 0.04 0.05 0.06
0.03 0.04 0.04 0.05 0.04 0.05 0.07 0.07 0.08 0.10 0.11 0.10 0.07 0.06 0.03 0.03 0.03 0.05 0.07 0.08 0.10 0.10 0.12 0.11 0.12 0.13 0.13 0.12 0.12 0.14 0.17 0.21 0.17 0.06 0.04 0.03 0.04 0.05 0.06 0.06 0.08 0.13 0.13
0.03 0.03 0.04 0.05 0.05 0.07 0.07 0.08 0.10 0.08 0.08 0.08 0.06 0.05 0.05 0.04 0.04 0.05 0.06 0.09 0.09 0.08 0.12 0.08 0.10 0.13 0.11 0.09 0.13 0.11 0.09 0.13 0.17 0.14 0.09 0.06 0.10 0.09 0.08 0.06 0.08 0.13 0.09
0.02 0.02 0.02 0.04 0.05 0.06 0.06 0.06 0.08 0.07 0.07 0.06 0.06 0.08 0.08 0.06 0.05 0.04 0.05 0.08 0.07 0.07 0.08 0.07 0.10 0.10 0.09 0.09 0.11 0.11 0.11 0.12 0.11 0.13 0.13 0.10 0.08 0.06 0.07 0.07 0.09 0.08 0.05
0.02 0.02 0.02 0.03 0.04 0.05 0.04 0.05 0.06 0.07 0.09 0.10 0.09 0.10 0.08 0.07 0.06 0.05 0.06 0.08 0.07 0.08 0.08 0.08 0.08 0.07 0.08 0.12 0.11 0.10 0.11 0.11 0.10 0.12 0.10 0.10 0.11 0.08 0.08 0.07 0.07 0.06 0.05
MSLP
1010.91 1011.08 1011.38 1011.81 1012.28 1012.72 1013.07 1013.29 1013.38 1013.36 1013.28 1013.20 1013.19 1013.26 1013.40 1013.60 1013.81 1014.00 1014.12 1014.19 1014.20 1014.18 1014.16 1014.16 1014.20 1014.29 1014.41 1014.55 1014.70 1014.84 1014.98 1015.12 1015.26 1015.42 1015.60 1015.80 1016.00 1016.21 1016.41 1016.59 1016.76 1016.92 1017.07
1010.94 1011.27 1011.71 1012.23 1012.73 1013.16 1013.46 1013.59 1013.58 1013.48 1013.36 1013.28 1013.29 1013.40 1013.61 1013.86 1014.11 1014.32 1014.46 1014.52 1014.53 1014.52 1014.53 1014.56 1014.63 1014.74 1014.88 1015.01 1015.13 1015.24 1015.34 1015.45 1015.59 1015.76 1015.96 1016.19 1016.43 1016.66 1016.87 1017.04 1017.19 1017.32 1017.45
1010.92 1011.39 1011.96 1012.56 1013.11 1013.53 1013.79 1013.86 1013.79 1013.64 1013.50 1013.42 1013.45 1013.60 1013.84 1014.11 1014.38 1014.59 1014.72 1014.79 1014.81 1014.81 1014.85 1014.91 1015.02 1015.15 1015.28 1015.39 1015.48 1015.54 1015.61 1015.70 1015.83 1016.02 1016.26 1016.53 1016.81 1017.07 1017.28 1017.45 1017.58 1017.69 1017.80
1010.84 1011.42 1012.10 1012.78 1013.38 1013.82 1014.07 1014.12 1014.03 1013.87 1013.72 1013.65 1013.71 1013.88 1014.13 1014.41 1014.66 1014.85 1014.97 1015.02 1015.05 1015.08 1015.14 1015.24 1015.37 1015.50 1015.62 1015.70 1015.73 1015.75 1015.78 1015.85 1015.98 1016.21 1016.49 1016.82 1017.14 1017.43 1017.66 1017.82 1017.93 1018.02 1018.11
1010.70 1011.38 1012.14 1012.90 1013.56 1014.04 1014.31 1014.38 1014.31 1014.16 1014.04 1014.00 1014.07 1014.25 1014.50 1014.76 1014.98 1015.14 1015.23 1015.27 1015.29 1015.34 1015.43 1015.55 1015.70 1015.83 1015.92 1015.95 1015.93 1015.90 1015.89 1015.94 1016.09 1016.35 1016.68 1017.06 1017.43 1017.75 1017.99 1018.14 1018.24 1018.31 1018.39
1010.55 1011.28 1012.10 1012.92 1013.64 1014.17 1014.49 1014.61 1014.59 1014.50 1014.42 1014.41 1014.51 1014.69 1014.92 1015.15 1015.34 1015.46 1015.52 1015.54 1015.57 1015.64 1015.75 1015.89 1016.04 1016.15 1016.20 1016.18 1016.11 1016.02 1015.97 1016.02 1016.18 1016.48 1016.87 1017.29 1017.70 1018.04 1018.29 1018.44 1018.51 1018.57 1018.64
1010.38 1011.13 1011.99 1012.85 1013.62 1014.22 1014.60 1014.79 1014.83 1014.80 1014.78 1014.82 1014.95 1015.13 1015.35 1015.55 1015.70 1015.79 1015.83 1015.85 1015.88 1015.96 1016.09 1016.24 1016.39 1016.47 1016.48 1016.41 1016.28 1016.15 1016.07 1016.11 1016.30 1016.63 1017.06 1017.53 1017.97 1018.33 1018.57 1018.71 1018.77 1018.80 1018.86
1010.24 1010.97 1011.83 1012.71 1013.52 1014.16 1014.60 1014.86 1014.97 1015.01 1015.06 1015.15 1015.30 1015.50 1015.71 1015.89 1016.02 1016.10 1016.13 1016.15 1016.20 1016.30 1016.44 1016.60 1016.73 1016.79 1016.76 1016.64 1016.46 1016.29 1016.20 1016.24 1016.44 1016.80 1017.27 1017.77 1018.24 1018.60 1018.84 1018.96 1019.00 1019.01 1019.06
1010.14 1010.83 1011.66 1012.53 1013.34 1014.01 1014.49 1014.80 1014.97 1015.08 1015.18 1015.31 1015.50 1015.72 1015.94 1016.12 1016.25 1016.33 1016.37 1016.41 1016.48 1016.59 1016.74 1016.90 1017.02 1017.06 1016.99 1016.83 1016.63 1016.44 1016.33 1016.38 1016.60 1016.98 1017.48 1018.00 1018.48 1018.86 1019.10 1019.20 1019.22 1019.22 1019.24
1010.11 1010.73 1011.51 1012.35 1013.14 1013.80 1014.29 1014.63 1014.84 1014.99 1015.13 1015.31 1015.53 1015.77 1016.01 1016.21 1016.36 1016.45 1016.52 1016.58 1016.67 1016.80 1016.96 1017.11 1017.22 1017.24 1017.15 1016.97 1016.75 1016.55 1016.45 1016.51 1016.74 1017.15 1017.66 1018.20 1018.70 1019.08 1019.32 1019.42 1019.43 1019.41 1019.42
1010.17 1010.73 1011.44 1012.22 1012.96 1013.59 1014.07 1014.40 1014.62 1014.79 1014.96 1015.16 1015.40 1015.67 1015.93 1016.16 1016.34 1016.47 1016.56 1016.65 1016.76 1016.90 1017.06 1017.21 1017.30 1017.30 1017.20 1017.02 1016.80 1016.61 1016.53 1016.59 1016.84 1017.26 1017.79 1018.34 1018.84 1019.24 1019.49 1019.60 1019.61 1019.59 1019.59
1010.33 1010.84 1011.49 1012.20 1012.87 1013.44 1013.87 1014.18 1014.38 1014.55 1014.72 1014.92 1015.18 1015.46 1015.75 1016.01 1016.22 1016.38 1016.51 1016.63 1016.75 1016.90 1017.05 1017.18 1017.26 1017.25 1017.15 1016.98 1016.78 1016.61 1016.54 1016.63 1016.89 1017.31 1017.84 1018.39 1018.91 1019.32 1019.59 1019.73 1019.77 1019.76 1019.76
1010.62 1011.08 1011.67 1012.31 1012.91 1013.41 1013.79 1014.04 1014.21 1014.34 1014.49 1014.69 1014.94 1015.23 1015.53 1015.81 1016.05 1016.24 1016.40 1016.53 1016.66 1016.80 1016.94 1017.05 1017.12 1017.11 1017.02 1016.87 1016.70 1016.56 1016.52 1016.62 1016.88 1017.29 1017.80 1018.36 1018.88 1019.31 1019.62 1019.80 1019.88 1019.90 1019.92
1011.00 1011.44 1011.98 1012.56 1013.09 1013.53 1013.84 1014.03 1014.15 1014.24 1014.35 1014.51 1014.74 1015.02 1015.32 1015.61 1015.87 1016.08 1016.25 1016.40 1016.53 1016.66 1016.78 1016.88 1016.93 1016.93 1016.86 1016.74 1016.60 1016.49 1016.47 1016.57 1016.82 1017.21 1017.70 1018.23 1018.75 1019.20 1019.55 1019.78 1019.92 1020.00 1020.05
1011.43 1011.87 1012.38 1012.91 1013.39 1013.76 1014.01 1014.15 1014.22 1014.26 1014.32 1014.44 1014.63 1014.87 1015.15 1015.44 1015.70 1015.93 1016.11 1016.26 1016.39 1016.51 1016.61 1016.70 1016.76 1016.76 1016.72 1016.63 1016.53 1016.45 1016.44 1016.54 1016.75 1017.10 1017.53 1018.03 1018.53 1018.98 1019.37 1019.66 1019.87 1020.01 1020.11
1011.85 1012.30 1012.79 1013.29 1013.72 1014.05 1014.27 1014.37 1014.39 1014.39 1014.40 1014.46 1014.59 1014.79 1015.04 1015.30 1015.56 1015.79 1015.97 1016.13 1016.26 1016.38 1016.48 1016.56 1016.62 1016.65 1016.64 1016.59 1016.52 1016.47 1016.46 1016.53 1016.70 1016.97 1017.33 1017.76 1018.21 1018.66 1019.07 1019.42 1019.69 1019.91 1020.07
1012.20 1012.65 1013.14 1013.61 1014.02 1014.33 1014.53 1014.61 1014.61 1014.57 1014.53 1014.54 1014.61 1014.76 1014.96 1015.19 1015.43 1015.65 1015.85 1016.01 1016.15 1016.28 1016.38 1016.48 1016.56 1016.61 1016.63 1016.62 1016.59 1016.55 1016.54 1016.57 1016.67 1016.85 1017.11 1017.45 1017.83 1018.24 1018.64 1019.02 1019.36 1019.65 1019.89
1012.43 1012.88 1013.36 1013.81 1014.21 1014.52 1014.71 1014.80 1014.80 1014.74 1014.67 1014.63 1014.64 1014.73 1014.87 1015.06 1015.28 1015.50 1015.70 1015.89 1016.05 1016.19 1016.32 1016.44 1016.54 1016.63 1016.68 1016.71 1016.71 1016.69 1016.67 1016.65 1016.68 1016.75 1016.90 1017.12 1017.40 1017.73 1018.11 1018.49 1018.87 1019.22 1019.53
1012.52 1012.97 1013.43 1013.87 1014.26 1014.58 1014.79 1014.90 1014.91 1014.85 1014.76 1014.69 1014.65 1014.67 1014.76 1014.91 1015.11 1015.32 1015.53 1015.74 1015.93 1016.10 1016.26 1016.41 1016.54 1016.67 1016.76 1016.83 1016.87 1016.86 1016.82 1016.77 1016.71 1016.68 1016.70 1016.78 1016.94 1017.18 1017.49 1017.84 1018.23 1018.62 1018.99
1012.51 1012.94 1013.37 1013.79 1014.18 1014.51 1014.75 1014.89 1014.93 1014.89 1014.80 1014.70 1014.62 1014.59 1014.63 1014.74 1014.90 1015.10 1015.33 1015.55 1015.77 1015.97 1016.17 1016.35 1016.52 1016.68 1016.82 1016.93 1016.99 1017.01 1016.97 1016.89 1016.77 1016.64 1016.54 1016.48 1016.51 1016.62 1016.83 1017.12 1017.48 1017.88 1018.29
1012.45 1012.84 1013.24 1013.63 1014.01 1014.34 1014.62 1014.80 1014.88 1014.87 1014.79 1014.67 1014.56 1014.49 1014.48 1014.54 1014.68 1014.86 1015.09 1015.33 1015.57 1015.80 1016.02 1016.22 1016.42 1016.62 1016.79 1016.94 1017.05 1017.10 1017.07 1016.98 1016.82 1016.62 1016.41 1016.23 1016.12 1016.09 1016.18 1016.38 1016.68 1017.05 1017.46
1012.37 1012.73 1013.08 1013.44 1013.80 1014.14 1014.43 1014.65 1014.77 1014.80 1014.74 1014.62 1014.49 1014.38 1014.33 1014.35 1014.45 1014.62 1014.83 1015.07 1015.32 1015.56 1015.79 1016.01 1016.23 1016.45 1016.65 1016.84 1016.99 1017.08 1017.09 1017.01 1016.84 1016.60 1016.32 1016.04 1015.80 1015.64 1015.60 1015.68 1015.88 1016.19 1016.57
1012.31 1012.64 1012.95 1013.27 1013.60 1013.94 1014.24 1014.49 1014.65 1014.71 1014.68 1014.57 1014.43 1014.30 1014.22 1014.20 1014.26 1014.39 1014.58 1014.80 1015.04 1015.27 1015.49 1015.70 1015.92 1016.14 1016.36 1016.58 1016.77 1016.91 1016.97 1016.93 1016.79 1016.55 1016.24 1015.89 1015.56 1015.29 1015.11 1015.06 1015.15 1015.36 1015.68
1012.28 1012.59 1012.87 1013.14 1013.44 1013.75 1014.06 1014.33 1014.52 1014.62 1014.62 1014.53 1014.40 1014.25 1014.14 1014.08 1014.10 1014.19 1014.34 1014.52 1014.72 1014.92 1015.10 1015.29 1015.48 1015.68 1015.90 1016.14 1016.36 1016.55 1016.68 1016.71 1016.62 1016.42 1016.12 1015.75 1015.36 1015.00 1014.71 1014.54 1014.50 1014.61 1014.83
1012.24 1012.54 1012.79 1013.03 1013.29 1013.58 1013.88 1014.16 1014.38 1014.51 1014.55 1014.49 1014.37 1014.23 1014.10 1014.01 1013.99 1014.03 1014.12 1014.25 1014.39 1014.53 1014.66 1014.78 1014.93 1015.09 1015.29 1015.52 1015.77 1016.00 1016.19 1016.29 1016.29 1016.15 1015.90 1015.55 1015.14 1014.73 1014.37 1014.09 1013.94 1013.93 1014.06
1012.14 1012.45 1012.68 1012.90 1013.13 1013.40 1013.69 1013.98 1014.22 1014.39 1014.47 1014.45 1014.36 1014.23 1014.09 1013.98 1013.92 1013.91 1013.94 1014.00 1014.06 1014.12 1014.17 1014.22 1014.29 1014.39 1014.55 1014.75 1015.00 1015.26 1015.50 1015.67 1015.75 1015.70 1015.52 1015.23 1014.85 1014.43 1014.02 1013.68 1013.44 1013.34 1013.37
Thickness
5797 5792 5787 5786 5784 5783 5781 5780 5778 5777 5776 5774 5773 5772 5771 5770 5768 5768 5766 5765 5764 5763 5762 5761 5760 5759 5758 5757 5756 5755 5754 5753 5752 5751 5749 5747 5745 5744 5743 5742 5742 5739 5737
5800 5792 5787 5785 5784 5782 5780 5779 5777 5776 5774 5773 5771 5770 5769 5768 5767 5766 5765 5764 5763 5762 5761 5759 5758 5757 5756 5755 5754 5753 5752 5751 5750 5749 5747 5745 5744 5742 5742 5742 5740 5737 5736
5800 5792 5787 5784 5782 5781 5779 5777 5776 5774 5773 5771 5770 5769 5768 5767 5766 5765 5763 5762 5761 5760 5759 5758 5757 5756 5754 5754 5753 5752 5751 5749 5748 5747 5747 5745 5742 5741 5740 5739 5737 5736 5734
5802 5794 5788 5784 5781 5780 5778 5776 5775 5773 5772 5770 5769 5768 5766 5765 5764 5763 5762 5761 5760 5759 5758 5757 5756 5754 5753 5752 5752 5751 5750 5749 5748 5747 5747 5744 5742 5739 5738 5737 5735 5734 5733
5801 5793 5786 5783 5781 5779 5777 5775 5773 5772 5770 5769 5767 5766 5765 5764 5763 5762 5761 5760 5759 5757 5756 5755 5754 5753 5752 5751 5751 5750 5749 5748 5748 5747 5746 5742 5740 5738 5737 5735 5734 5733 5731
5800 5792 5785 5782 5779 5777 5775 5774 5772 5771 5769 5768 5767 5765 5764 5763 5762 5761 5759 5758 5757 5756 5755 5753 5752 5751 5751 5750 5750 5749 5749 5748 5748 5747 5745 5741 5738 5737 5735 5734 5733 5731 5730
5800 5792 5785 5781 5778 5776 5774 5773 5771 5770 5768 5767 5766 5764 5763 5762 5760 5759 5758 5757 5756 5755 5753 5752 5751 5750 5749 5749 5749 5749 5749 5749 5749 5747 5743 5740 5737 5736 5734 5733 5732 5730 5729
5802 5792 5784 5780 5777 5775 5773 5772 5770 5769 5767 5766 5765 5763 5762 5761 5759 5758 5757 5756 5755 5753 5752 5751 5750 5749 5749 5748 5749 5749 5749 5749 5750 5748 5743 5739 5736 5735 5733 5732 5731 5730 5729
5803 5793 5785 5780 5777 5774 5772 5771 5769 5768 5766 5765 5764 5762 5761 5760 5759 5757 5756 5755 5754 5752 5751 5750 5749 5748 5748 5748 5748 5749 5749 5750 5750 5747 5743 5738 5736 5734 5733 5732 5730 5729 5728
5805 5797 5789 5784 5779 5775 5772 5770 5768 5767 5766 5764 5763 5762 5761 5759 5758 5757 5756 5754 5753 5752 5751 5750 5749 5748 5748 5748 5748 5749 5750 5751 5751 5748 5743 5738 5736 5734 5733 5731 5730 5729 5728
5803 5799 5795 5789 5783 5780 5776 5771 5768 5767 5765 5764 5763 5762 5761 5760 5759 5757 5756 5754 5753 5752 5751 5750 5749 5748 5748 5748 5749 5749 5750 5752 5751 5747 5742 5739 5737 5735 5733 5731 5730 5729 5727
5798 5799 5797 5792 5787 5784 5780 5773 5771 5770 5766 5766 5765 5763 5762 5762 5761 5759 5756 5755 5753 5752 5751 5750 5750 5749 5749 5750 5750 5750 5751 5753 5752 5746 5741 5739 5737 5735 5734 5732 5730 5729 5728
5799 5799 5797 5792 5788 5785 5781 5777 5775 5772 5769 5768 5767 5766 5765 5764 5762 5759 5757 5755 5754 5753 5753 5752 5751 5751 5752 5752 5753 5753 5754 5754 5752 5747 5741 5740 5738 5736 5734 5733 5731 5729 5728
5800 5798 5797 5793 5788 5785 5783 5781 5777 5775 5772 5771 5769 5768 5767 5766 5764 5762 5760 5758 5757 5756 5755 5755 5755 5755 5755 5755 5755 5755 5755 5755 5752 5747 5742 5740 5739 5737 5736 5734 5732 5730 5729
5800 5798 5796 5793 5788 5784 5782 5780 5780 5778 5776 5773 5771 5770 5768 5766 5765 5763 5762 5761 5760 5759 5758 5758 5758 5758 5757 5756 5756 5756 5755 5754 5752 5749 5744 5741 5740 5739 5737 5735 5733 5731 5730
5800 5797 5795 5791 5787 5783 5780 5779 5779 5779 5776 5775 5773 5771 5769 5768 5766 5764 5762 5762 5762 5761 5761 5760 5760 5758 5757 5757 5757 5757 5756 5755 5753 5750 5746 5743 5742 5741 5739 5737 5735 5733 5731
5802 5798 5794 5790 5786 5782 5780 5779 5779 5779 5778 5777 5774 5772 5770 5768 5766 5765 5763 5762 5763 5762 5762 5761 5760 5759 5759 5758 5757 5757 5757 5756 5754 5752 5749 5747 5744 5742 5741 5739 5737 5735 5733
5804 5799 5795 5793 5787 5782 5780 5779 5780 5780 5779 5777 5775 5772 5770 5769 5766 5765 5764 5763 5763 5763 5762 5761 5761 5759 5758 5758 5757 5758 5758 5757 5756 5754 5753 5751 5748 5746 5744 5741 5739 5737 5735
5806 5800 5795 5792 5788 5784 5781 5779 5779 5779 5779 5778 5776 5774 5771 5769 5767 5765 5765 5764 5764 5764 5763 5762 5760 5759 5757 5756 5757 5758 5759 5759 5758 5758 5756 5755 5753 5751 5748 5745 5742 5740 5738
5807 5801 5796 5792 5789 5785 5782 5779 5778 5778 5777 5777 5776 5775 5772 5770 5768 5767 5766 5765 5765 5763 5762 5762 5760 5759 5757 5756 5757 5758 5759 5760 5761 5760 5759 5759 5757 5755 5753 5750 5746 5743 5740
5807 5801 5796 5791 5788 5785 5781 5778 5775 5774 5775 5775 5776 5775 5772 5770 5769 5768 5767 5766 5765 5763 5762 5762 5760 5758 5756 5757 5752 5750 5755 5760 5761 5761 5761 5761 5760 5759 5757 5754 5750 5747 5744
5806 5802 5797 5793 5789 5786 5783 5780 5778 5777 5775 5774 5776 5775 5773 5771 5770 5769 5767 5766 5765 5764 5762 5761 5760 5757 5756 5757 5751 5744 5742 5748 5756 5762 5761 5760 5761 5760 5759 5756 5753 5751 5748
5806 5802 5799 5794 5791 5787 5785 5781 5779 5776 5774 5773 5773 5773 5773 5772 5770 5769 5768 5767 5766 5765 5762 5761 5760 5756 5753 5756 5757 5748 5739 5736 5745 5755 5759 5760 5760 5759 5757 5756 5754 5751 5749
5809 5805 5800 5795 5791 5788 5785 5780 5775 5772 5770 5771 5773 5774 5773 5772 5771 5770 5768 5767 5766 5765 5763 5762 5762 5760 5756 5753 5755 5756 5753 5750 5741 5741 5751 5757 5757 5756 5756 5756 5755 5753 5750
5812 5806 5801 5795 5790 5788 5784 5781 5776 5774 5773 5774 5774 5773 5772 5772 5771 5770 5768 5767 5765 5764 5763 5763 5762 5760 5758 5755 5753 5753 5752 5751 5749 5741 5739 5746 5752 5755 5756 5755 5754 5752 5750
5813 5807 5801 5794 5789 5787 5783 5780 5777 5773 5772 5771 5770 5769 5769 5769 5770 5769 5768 5766 5765 5764 5763 5762 5761 5760 5758 5756 5754 5753 5750 5747 5746 5744 5739 5741 5743 5749 5753 5753 5752 5750 5748